Погода в Давыдове

Россия / Московская область     55°36′27″N   38°51′31″E
темп.,
°C
ветер,
м/с
пор.,
м/с
влажн.,
%
обл.,
%
осадки,
мм/ч
давл.,
гПа
погр.,
м
7 мая, пт
пт700:00+8юз4108599 0.0 1008518
03:00+6юз3894100 0.0 1009315
06:00+6зюз3791100 0.0 1010325
09:00+10зюз3659100 0.0 10101040
12:00+13зюз574312 0.0 10122131
15:00+14зюз483495 0.0 10122821
18:00+13юз364567 0.0 10121877
21:00+7ю387253 0.0 1013155
8 мая, сб
сб800:00+7ююв31167100 0.0 1013216
03:00+8ююв41464100 0.0 1012451
06:00+8ююв41374100 0.1 1011744
09:00+8юв51490100 2.3 10091315
12:00+8ююв71793100 5.9 10071285
15:00+9ююв61595100 13.3 10051256
18:00+10ююв41197100 4.8 1003579
21:00+10ююв4998100 5.1 1002530
9 мая, вс
вс900:00+9ююз3698100 0.1 1002325
03:00+8зсз2497100 0.1 1003196
06:00+7з1399100 1.3 1005173
09:00+5ссз51095100 2.5 1008748
12:00+4ссз51397100 0.6 1012776
15:00+8ссз5118385 0.9 10151317
18:00+9с512704 0.3 10171556
21:00+5ссз24860 0.3 102170
10 мая, пн
пн1000:00+3ссз26920 0.0 1023107
03:00+2ссз39890 0.0 1025183
06:00+4с29805 0.0 1027233
09:00+10ссв475010 0.0 1028947
12:00+14ссв463986 0.0 10281379
15:00+15ссв463678 0.0 10281486
18:00+14ссв36490 0.0 1028840
21:00+8св23740 0.0 103049
11 мая, вт
вт1100:00+6св35815 0.0 103087
03:00+5св36842 0.0 1031103
06:00+6св38796 0.0 1031211
09:00+13всв485035 0.0 1031695
12:00+18всв573786 0.0 10301220
15:00+19всв4535100 0.0 10281317
18:00+17всв3654100 0.0 1028246
21:00+11всв3574100 0.0 102984